Year,Month,Day,Hour,Minute,Value (Times are PST for temperature in C)
2008,10,21,00,00,4.40
2008,10,21,00,01,4.40
2008,10,21,00,02,4.40
2008,10,21,00,03,4.50
2008,10,21,00,04,4.60
2008,10,21,00,05,4.60
2008,10,21,00,06,4.60
2008,10,21,00,07,4.60
2008,10,21,00,08,4.70
2008,10,21,00,09,4.70
2008,10,21,00,10,4.70
2008,10,21,00,11,4.70
2008,10,21,00,12,4.70
2008,10,21,00,13,4.70
2008,10,21,00,14,4.70
2008,10,21,00,15,4.60
2008,10,21,00,16,4.60
2008,10,21,00,17,4.50
2008,10,21,00,18,4.40
2008,10,21,00,19,4.40
2008,10,21,00,20,4.30
2008,10,21,00,21,4.30
2008,10,21,00,22,4.30
2008,10,21,00,23,4.30
2008,10,21,00,24,4.30
2008,10,21,00,25,4.40
2008,10,21,00,26,4.50
2008,10,21,00,27,4.60
2008,10,21,00,28,4.60
2008,10,21,00,29,4.60
2008,10,21,00,30,4.60
2008,10,21,00,31,4.50
2008,10,21,00,32,4.40
2008,10,21,00,33,4.40
2008,10,21,00,34,4.30
2008,10,21,00,35,4.30
2008,10,21,00,36,4.20
2008,10,21,00,37,4.20
2008,10,21,00,38,4.20
2008,10,21,00,39,4.20
2008,10,21,00,40,4.20
2008,10,21,00,41,4.20
2008,10,21,00,42,4.20
2008,10,21,00,43,4.10
2008,10,21,00,44,4.10
2008,10,21,00,45,4.10
2008,10,21,00,46,4.10
2008,10,21,00,47,4.10
2008,10,21,00,48,4.10
2008,10,21,00,49,4.10
2008,10,21,00,50,4.10
2008,10,21,00,51,4.10
2008,10,21,00,52,4.10
2008,10,21,00,53,4.10
2008,10,21,00,54,4.20
2008,10,21,00,55,4.20
2008,10,21,00,56,4.20
2008,10,21,00,57,4.20
2008,10,21,00,58,4.20
2008,10,21,00,59,4.20
2008,10,21,01,00,4.20
2008,10,21,01,01,4.20
2008,10,21,01,02,4.20
2008,10,21,01,03,4.20
2008,10,21,01,04,4.20
2008,10,21,01,05,4.10
2008,10,21,01,06,4.10
2008,10,21,01,07,4.10
2008,10,21,01,08,4.00
2008,10,21,01,09,4.00
2008,10,21,01,10,3.90
2008,10,21,01,11,3.90
2008,10,21,01,12,3.90
2008,10,21,01,13,3.90
2008,10,21,01,14,3.80
2008,10,21,01,15,3.80
2008,10,21,01,16,3.80
2008,10,21,01,17,3.80
2008,10,21,01,18,3.80
2008,10,21,01,19,3.80
2008,10,21,01,20,3.70
2008,10,21,01,21,3.60
2008,10,21,01,22,3.60
2008,10,21,01,23,3.60
2008,10,21,01,24,3.60
2008,10,21,01,25,3.60
2008,10,21,01,26,3.60
2008,10,21,01,27,3.60
2008,10,21,01,28,3.60
2008,10,21,01,29,3.60
2008,10,21,01,30,3.60
2008,10,21,01,31,3.60
2008,10,21,01,32,3.60
2008,10,21,01,33,3.60
2008,10,21,01,34,3.60
2008,10,21,01,35,3.60
2008,10,21,01,36,3.50
2008,10,21,01,37,3.50
2008,10,21,01,38,3.40
2008,10,21,01,39,3.40
2008,10,21,01,40,3.40
2008,10,21,01,41,3.30
2008,10,21,01,42,3.30
2008,10,21,01,43,3.30
2008,10,21,01,44,3.20
2008,10,21,01,45,3.20
2008,10,21,01,46,3.20
2008,10,21,01,47,3.10
2008,10,21,01,48,3.10
2008,10,21,01,49,3.10
2008,10,21,01,50,3.00
2008,10,21,01,51,3.00
2008,10,21,01,52,3.00
2008,10,21,01,53,3.00
2008,10,21,01,54,3.00
2008,10,21,01,55,2.90
2008,10,21,01,56,2.90
2008,10,21,01,57,2.90
2008,10,21,01,58,2.90
2008,10,21,01,59,2.90
2008,10,21,02,00,2.90
2008,10,21,02,01,2.90
2008,10,21,02,02,2.90
2008,10,21,02,03,2.90
2008,10,21,02,04,2.90
2008,10,21,02,05,2.90
2008,10,21,02,06,2.90
2008,10,21,02,07,2.90
2008,10,21,02,08,2.90
2008,10,21,02,09,2.90
2008,10,21,02,10,3.00
2008,10,21,02,11,3.00
2008,10,21,02,12,3.00
2008,10,21,02,13,3.10
2008,10,21,02,14,3.10
2008,10,21,02,15,3.10
2008,10,21,02,16,3.10
2008,10,21,02,17,3.10
2008,10,21,02,18,3.20
2008,10,21,02,19,3.20
2008,10,21,02,20,3.30
2008,10,21,02,21,3.30
2008,10,21,02,22,3.30
2008,10,21,02,23,3.30
2008,10,21,02,24,3.30
2008,10,21,02,25,3.30
2008,10,21,02,26,3.20
2008,10,21,02,27,3.20
2008,10,21,02,28,3.20
2008,10,21,02,29,3.10
2008,10,21,02,30,3.00
2008,10,21,02,31,3.00
2008,10,21,02,32,3.00
2008,10,21,02,33,3.00
2008,10,21,02,34,3.00
2008,10,21,02,35,3.00
2008,10,21,02,36,2.90
2008,10,21,02,37,2.90
2008,10,21,02,38,2.90
2008,10,21,02,39,2.80
2008,10,21,02,40,2.80
2008,10,21,02,41,2.80
2008,10,21,02,42,2.80
2008,10,21,02,43,2.80
2008,10,21,02,44,2.90
2008,10,21,02,45,2.80
2008,10,21,02,46,2.80
2008,10,21,02,47,2.70
2008,10,21,02,48,2.70
2008,10,21,02,49,2.60
2008,10,21,02,50,2.60
2008,10,21,02,51,2.60
2008,10,21,02,52,2.50
2008,10,21,02,53,2.50
2008,10,21,02,54,2.50
2008,10,21,02,55,2.50
2008,10,21,02,56,2.50
2008,10,21,02,57,2.50
2008,10,21,02,58,2.50
2008,10,21,02,59,2.60
2008,10,21,03,00,2.60
2008,10,21,03,01,2.70
2008,10,21,03,02,2.70
2008,10,21,03,03,2.70
2008,10,21,03,04,2.80
2008,10,21,03,05,2.80
2008,10,21,03,06,2.80
2008,10,21,03,07,2.90
2008,10,21,03,08,2.90
2008,10,21,03,09,2.90
2008,10,21,03,10,2.80
2008,10,21,03,11,2.80
2008,10,21,03,12,2.80
2008,10,21,03,13,2.70
2008,10,21,03,14,2.70
2008,10,21,03,15,2.70
2008,10,21,03,16,2.70
2008,10,21,03,17,2.70
2008,10,21,03,18,2.70
2008,10,21,03,19,2.70
2008,10,21,03,20,2.60
2008,10,21,03,21,2.60
2008,10,21,03,22,2.60
2008,10,21,03,23,2.60
2008,10,21,03,24,2.60
2008,10,21,03,25,2.60
2008,10,21,03,26,2.60
2008,10,21,03,27,2.50
2008,10,21,03,28,2.50
2008,10,21,03,29,2.50
2008,10,21,03,30,2.50
2008,10,21,03,31,2.50
2008,10,21,03,32,2.50
2008,10,21,03,33,2.60
2008,10,21,03,34,2.70
2008,10,21,03,35,2.70
2008,10,21,03,36,2.70
2008,10,21,03,37,2.70
2008,10,21,03,38,2.60
2008,10,21,03,39,2.60
2008,10,21,03,40,2.60
2008,10,21,03,41,2.50
2008,10,21,03,42,2.50
2008,10,21,03,43,2.40
2008,10,21,03,44,2.40
2008,10,21,03,45,2.40
2008,10,21,03,46,2.30
2008,10,21,03,47,2.30
2008,10,21,03,48,2.20
2008,10,21,03,49,2.20
2008,10,21,03,50,2.10
2008,10,21,03,51,2.10
2008,10,21,03,52,2.20
2008,10,21,03,53,2.20
2008,10,21,03,54,2.20
2008,10,21,03,55,2.20
2008,10,21,03,56,2.20
2008,10,21,03,57,2.20
2008,10,21,03,58,2.30
2008,10,21,03,59,2.20
2008,10,21,04,00,2.20
2008,10,21,04,01,2.20
2008,10,21,04,02,2.20
2008,10,21,04,03,2.20
2008,10,21,04,04,2.20
2008,10,21,04,05,2.20
2008,10,21,04,06,2.20
2008,10,21,04,07,2.20
2008,10,21,04,08,2.20
2008,10,21,04,09,2.30
2008,10,21,04,10,2.30
2008,10,21,04,11,2.30
2008,10,21,04,12,2.30
2008,10,21,04,13,2.30
2008,10,21,04,14,2.30
2008,10,21,04,15,2.30
2008,10,21,04,16,2.30
2008,10,21,04,17,2.30
2008,10,21,04,18,2.20
2008,10,21,04,19,2.20
2008,10,21,04,20,2.20
2008,10,21,04,21,2.10
2008,10,21,04,22,2.00
2008,10,21,04,23,2.00
2008,10,21,04,24,1.90
2008,10,21,04,25,1.90
2008,10,21,04,26,1.90
2008,10,21,04,27,1.90
2008,10,21,04,28,1.90
2008,10,21,04,29,1.90
2008,10,21,04,30,1.90
2008,10,21,04,31,1.90
2008,10,21,04,32,1.90
2008,10,21,04,33,1.80
2008,10,21,04,34,1.80
2008,10,21,04,35,1.80
2008,10,21,04,36,1.80
2008,10,21,04,37,1.70
2008,10,21,04,38,1.70
2008,10,21,04,39,1.70
2008,10,21,04,40,1.70
2008,10,21,04,41,1.80
2008,10,21,04,42,1.90
2008,10,21,04,43,1.90
2008,10,21,04,44,2.00
2008,10,21,04,45,2.00
2008,10,21,04,46,2.00
2008,10,21,04,47,2.00
2008,10,21,04,48,2.00
2008,10,21,04,49,2.00
2008,10,21,04,50,1.90
2008,10,21,04,51,1.90
2008,10,21,04,52,1.90
2008,10,21,04,53,2.00
2008,10,21,04,54,2.10
2008,10,21,04,55,2.10
2008,10,21,04,56,2.10
2008,10,21,04,57,2.20
2008,10,21,04,58,2.20
2008,10,21,04,59,2.30
2008,10,21,05,00,2.20
2008,10,21,05,01,1.90
2008,10,21,05,02,1.80
2008,10,21,05,03,1.60
2008,10,21,05,04,1.40
2008,10,21,05,05,1.30
2008,10,21,05,06,1.30
2008,10,21,05,07,1.30
2008,10,21,05,08,1.30
2008,10,21,05,09,1.30
2008,10,21,05,10,1.30
2008,10,21,05,11,1.30
2008,10,21,05,12,1.30
2008,10,21,05,13,1.30
2008,10,21,05,14,1.30
2008,10,21,05,15,1.30
2008,10,21,05,16,1.30
2008,10,21,05,17,1.30
2008,10,21,05,18,1.30
2008,10,21,05,19,1.40
2008,10,21,05,20,1.50
2008,10,21,05,21,1.60
2008,10,21,05,22,1.70
2008,10,21,05,23,1.80
2008,10,21,05,24,1.80
2008,10,21,05,25,1.90
2008,10,21,05,26,1.90
2008,10,21,05,27,1.80
2008,10,21,05,28,1.80
2008,10,21,05,29,1.70
2008,10,21,05,30,1.70
2008,10,21,05,31,1.70
2008,10,21,05,32,1.60
2008,10,21,05,33,1.60
2008,10,21,05,34,1.60
2008,10,21,05,35,1.50
2008,10,21,05,36,1.50
2008,10,21,05,37,1.50
2008,10,21,05,38,1.40
2008,10,21,05,39,1.40
2008,10,21,05,40,1.30
2008,10,21,05,41,1.30
2008,10,21,05,42,1.30
2008,10,21,05,43,1.30
2008,10,21,05,44,1.30
2008,10,21,05,45,1.30
2008,10,21,05,46,1.30
2008,10,21,05,47,1.30
2008,10,21,05,48,1.30
2008,10,21,05,49,1.20
2008,10,21,05,50,1.20
2008,10,21,05,51,1.20
2008,10,21,05,52,1.20
2008,10,21,05,53,1.30
2008,10,21,05,54,1.30
2008,10,21,05,55,1.40
2008,10,21,05,56,1.40
2008,10,21,05,57,1.50
2008,10,21,05,58,1.60
2008,10,21,05,59,1.60
2008,10,21,06,00,1.60
2008,10,21,06,01,1.60
2008,10,21,06,02,1.60
2008,10,21,06,03,1.50
2008,10,21,06,04,1.50
2008,10,21,06,05,1.50
2008,10,21,06,06,1.40
2008,10,21,06,07,1.40
2008,10,21,06,08,1.40
2008,10,21,06,09,1.40
2008,10,21,06,10,1.30
2008,10,21,06,11,1.30
2008,10,21,06,12,1.30
2008,10,21,06,13,1.30
2008,10,21,06,14,1.30
2008,10,21,06,15,1.30
2008,10,21,06,16,1.30
2008,10,21,06,17,1.30
2008,10,21,06,18,1.30
2008,10,21,06,19,1.30
2008,10,21,06,20,1.30
2008,10,21,06,21,1.30
2008,10,21,06,22,1.20
2008,10,21,06,23,1.20
2008,10,21,06,24,1.10
2008,10,21,06,25,1.10
2008,10,21,06,26,1.10
2008,10,21,06,27,1.10
2008,10,21,06,28,1.10
2008,10,21,06,29,1.00
2008,10,21,06,30,1.10
2008,10,21,06,31,1.10
2008,10,21,06,32,1.20
2008,10,21,06,33,1.20
2008,10,21,06,34,1.30
2008,10,21,06,35,1.30
2008,10,21,06,36,1.40
2008,10,21,06,37,1.40
2008,10,21,06,38,1.40
2008,10,21,06,39,1.30
2008,10,21,06,40,1.30
2008,10,21,06,41,1.40
2008,10,21,06,42,1.40
2008,10,21,06,43,1.40
2008,10,21,06,44,1.30
2008,10,21,06,45,1.30
2008,10,21,06,46,1.10
2008,10,21,06,47,1.00
2008,10,21,06,48,0.90
2008,10,21,06,49,0.80
2008,10,21,06,50,0.80
2008,10,21,06,51,0.70
2008,10,21,06,52,0.70
2008,10,21,06,53,0.70
2008,10,21,06,54,0.70
2008,10,21,06,55,0.80
2008,10,21,06,56,0.80
2008,10,21,06,57,0.90
2008,10,21,06,58,1.00
2008,10,21,06,59,1.10
2008,10,21,07,00,1.20
2008,10,21,07,01,1.30
2008,10,21,07,02,1.30
2008,10,21,07,03,1.30
2008,10,21,07,04,1.30
2008,10,21,07,05,1.40
2008,10,21,07,06,1.40
2008,10,21,07,07,1.40
2008,10,21,07,08,1.40
2008,10,21,07,09,1.50
2008,10,21,07,10,1.40
2008,10,21,07,11,1.40
2008,10,21,07,12,1.40
2008,10,21,07,13,1.40
2008,10,21,07,14,1.40
2008,10,21,07,15,1.40
2008,10,21,07,16,1.50
2008,10,21,07,17,1.50
2008,10,21,07,18,1.50
2008,10,21,07,19,1.60
2008,10,21,07,20,1.60
2008,10,21,07,21,1.60
2008,10,21,07,22,1.60
2008,10,21,07,23,1.70
2008,10,21,07,24,1.70
2008,10,21,07,25,1.70
2008,10,21,07,26,1.70
2008,10,21,07,27,1.70
2008,10,21,07,28,1.60
2008,10,21,07,29,1.60
2008,10,21,07,30,1.50
2008,10,21,07,31,1.40
2008,10,21,07,32,1.30
2008,10,21,07,33,1.30
2008,10,21,07,34,1.30
2008,10,21,07,35,1.30
2008,10,21,07,36,1.30
2008,10,21,07,37,1.20
2008,10,21,07,38,1.20
2008,10,21,07,39,1.20
2008,10,21,07,40,1.10
2008,10,21,07,41,1.10
2008,10,21,07,42,1.10
2008,10,21,07,43,1.10
2008,10,21,07,44,1.00
2008,10,21,07,45,1.00
2008,10,21,07,46,1.10
2008,10,21,07,47,1.10
2008,10,21,07,48,1.20
2008,10,21,07,49,1.20
2008,10,21,07,50,1.30
2008,10,21,07,51,1.30
2008,10,21,07,52,1.30
2008,10,21,07,53,1.30
2008,10,21,07,54,1.30
2008,10,21,07,55,1.30
2008,10,21,07,56,1.30
2008,10,21,07,57,1.30
2008,10,21,07,58,1.30
2008,10,21,07,59,1.30
2008,10,21,08,00,1.30
2008,10,21,08,01,1.20
2008,10,21,08,02,1.20
2008,10,21,08,03,1.20
2008,10,21,08,04,1.20
2008,10,21,08,05,1.20
2008,10,21,08,06,1.20
2008,10,21,08,07,1.30
2008,10,21,08,08,1.30
2008,10,21,08,09,1.30
2008,10,21,08,10,1.30
2008,10,21,08,11,1.30
2008,10,21,08,12,1.30
2008,10,21,08,13,1.30
2008,10,21,08,14,1.30
2008,10,21,08,15,1.30
2008,10,21,08,16,1.30
2008,10,21,08,17,1.30
2008,10,21,08,18,1.30
2008,10,21,08,19,1.30
2008,10,21,08,20,1.30
2008,10,21,08,21,1.30
2008,10,21,08,22,1.30
2008,10,21,08,23,1.30
2008,10,21,08,24,1.30
2008,10,21,08,25,1.30
2008,10,21,08,26,1.30
2008,10,21,08,27,1.30
2008,10,21,08,28,1.30
2008,10,21,08,29,1.30
2008,10,21,08,30,1.40
2008,10,21,08,31,1.50
2008,10,21,08,32,1.60
2008,10,21,08,33,1.70
2008,10,21,08,34,1.70
2008,10,21,08,35,1.80
2008,10,21,08,36,1.90
2008,10,21,08,37,2.00
2008,10,21,08,38,2.00
2008,10,21,08,39,2.10
2008,10,21,08,40,2.20
2008,10,21,08,41,2.20
2008,10,21,08,42,2.30
2008,10,21,08,43,2.40
2008,10,21,08,44,2.40
2008,10,21,08,45,2.50
2008,10,21,08,46,2.50
2008,10,21,08,47,2.60
2008,10,21,08,48,2.70
2008,10,21,08,49,2.80
2008,10,21,08,50,2.90
2008,10,21,08,51,3.00
2008,10,21,08,52,3.10
2008,10,21,08,53,3.20
2008,10,21,08,54,3.20
2008,10,21,08,55,3.30
2008,10,21,08,56,3.30
2008,10,21,08,57,3.30
2008,10,21,08,58,3.30
2008,10,21,08,59,3.20
2008,10,21,09,00,3.20
2008,10,21,09,01,3.20
2008,10,21,09,02,3.30
2008,10,21,09,03,3.30
2008,10,21,09,04,3.30
2008,10,21,09,05,3.30
2008,10,21,09,06,3.30
2008,10,21,09,07,3.30
2008,10,21,09,08,3.30
2008,10,21,09,09,3.30
2008,10,21,09,10,3.30
2008,10,21,09,11,3.40
2008,10,21,09,12,3.40
2008,10,21,09,13,3.50
2008,10,21,09,14,3.50
2008,10,21,09,15,3.40
2008,10,21,09,16,3.40
2008,10,21,09,17,3.40
2008,10,21,09,18,3.50
2008,10,21,09,19,3.50
2008,10,21,09,20,3.60
2008,10,21,09,21,3.70
2008,10,21,09,22,3.80
2008,10,21,09,23,3.80
2008,10,21,09,24,3.90
2008,10,21,09,25,4.00
2008,10,21,09,26,4.00
2008,10,21,09,27,4.10
2008,10,21,09,28,4.10
2008,10,21,09,29,4.20
2008,10,21,09,30,4.30
2008,10,21,09,31,4.30
2008,10,21,09,32,4.40
2008,10,21,09,33,4.50
2008,10,21,09,34,4.50
2008,10,21,09,35,4.60
2008,10,21,09,36,4.70
2008,10,21,09,37,4.70
2008,10,21,09,38,4.80
2008,10,21,09,39,4.90
2008,10,21,09,40,5.00
2008,10,21,09,41,5.10
2008,10,21,09,42,5.10
2008,10,21,09,43,5.20
2008,10,21,09,44,5.20
2008,10,21,09,45,5.30
2008,10,21,09,46,5.40
2008,10,21,09,47,5.60
2008,10,21,09,48,5.70
2008,10,21,09,49,5.70
2008,10,21,09,50,5.80
2008,10,21,09,51,5.90
2008,10,21,09,52,5.90
2008,10,21,09,53,6.00
2008,10,21,09,54,6.00
2008,10,21,09,55,6.00
2008,10,21,09,56,6.10
2008,10,21,09,57,6.10
2008,10,21,09,58,6.20
2008,10,21,09,59,6.30
2008,10,21,10,00,6.30
2008,10,21,10,01,6.40
2008,10,21,10,02,6.50
2008,10,21,10,03,6.60
2008,10,21,10,04,6.80
2008,10,21,10,05,6.90
2008,10,21,10,06,7.10
2008,10,21,10,07,7.30
2008,10,21,10,08,7.50
2008,10,21,10,09,7.70
2008,10,21,10,10,7.80
2008,10,21,10,11,7.90
2008,10,21,10,12,8.00
2008,10,21,10,13,8.10
2008,10,21,10,14,8.20
2008,10,21,10,15,8.20
2008,10,21,10,16,8.30
2008,10,21,10,17,8.40
2008,10,21,10,18,8.50
2008,10,21,10,19,8.60
2008,10,21,10,20,8.70
2008,10,21,10,21,8.90
2008,10,21,10,22,9.00
2008,10,21,10,23,9.10
2008,10,21,10,24,9.10
2008,10,21,10,25,9.20
2008,10,21,10,26,9.30
2008,10,21,10,27,9.30
2008,10,21,10,28,9.40
2008,10,21,10,29,9.50
2008,10,21,10,30,9.60
2008,10,21,10,31,9.60
2008,10,21,10,32,9.70
2008,10,21,10,33,9.70
2008,10,21,10,34,9.80
2008,10,21,10,35,9.80
2008,10,21,10,36,9.80
2008,10,21,10,37,9.80
2008,10,21,10,38,9.80
2008,10,21,10,39,9.80
2008,10,21,10,40,9.90
2008,10,21,10,41,9.90
2008,10,21,10,42,10.00
2008,10,21,10,43,10.10
2008,10,21,10,44,10.10
2008,10,21,10,45,10.20
2008,10,21,10,46,10.20
2008,10,21,10,47,10.20
2008,10,21,10,48,10.30
2008,10,21,10,49,10.30
2008,10,21,10,50,10.30
2008,10,21,10,51,10.30
2008,10,21,10,52,10.30
2008,10,21,10,53,10.30
2008,10,21,10,54,10.30
2008,10,21,10,55,10.30
2008,10,21,10,56,10.40
2008,10,21,10,57,10.40
2008,10,21,10,58,10.30
2008,10,21,10,59,10.30
2008,10,21,11,00,10.30
2008,10,21,11,01,10.30
2008,10,21,11,02,10.30
2008,10,21,11,03,10.30
2008,10,21,11,04,10.30
2008,10,21,11,05,10.30
2008,10,21,11,06,10.40
2008,10,21,11,07,10.40
2008,10,21,11,08,10.40
2008,10,21,11,09,10.50
2008,10,21,11,10,10.50
2008,10,21,11,11,10.60
2008,10,21,11,12,10.60
2008,10,21,11,13,10.70
2008,10,21,11,14,10.70
2008,10,21,11,15,10.80
2008,10,21,11,16,10.80
2008,10,21,11,17,10.90
2008,10,21,11,18,10.90
2008,10,21,11,19,11.00
2008,10,21,11,20,11.00
2008,10,21,11,21,11.00
2008,10,21,11,22,11.00
2008,10,21,11,23,11.10
2008,10,21,11,24,11.20
2008,10,21,11,25,11.20
2008,10,21,11,26,11.20
2008,10,21,11,27,11.20
2008,10,21,11,28,11.20
2008,10,21,11,29,11.20
2008,10,21,11,30,11.20
2008,10,21,11,31,11.20
2008,10,21,11,32,11.20
2008,10,21,11,33,11.30
2008,10,21,11,34,11.30
2008,10,21,11,35,11.40
2008,10,21,11,36,11.50
2008,10,21,11,37,11.50
2008,10,21,11,38,11.50
2008,10,21,11,39,11.60
2008,10,21,11,40,11.60
2008,10,21,11,41,11.60
2008,10,21,11,42,11.60
2008,10,21,11,43,11.50
2008,10,21,11,44,11.50
2008,10,21,11,45,11.40
2008,10,21,11,46,11.30
2008,10,21,11,47,11.30
2008,10,21,11,48,11.20
2008,10,21,11,49,11.20
2008,10,21,11,50,11.20
2008,10,21,11,51,11.20
2008,10,21,11,52,11.20
2008,10,21,11,53,11.30
2008,10,21,11,54,11.40
2008,10,21,11,55,11.50
2008,10,21,11,56,11.60
2008,10,21,11,57,11.60
2008,10,21,11,58,11.70
2008,10,21,11,59,11.70
2008,10,21,12,00,11.70
2008,10,21,12,01,11.80
2008,10,21,12,02,11.70
2008,10,21,12,03,11.70
2008,10,21,12,04,11.60
2008,10,21,12,05,11.60
2008,10,21,12,06,11.60
2008,10,21,12,07,11.60
2008,10,21,12,08,11.50
2008,10,21,12,09,11.50
2008,10,21,12,10,11.40
2008,10,21,12,11,11.40
2008,10,21,12,12,11.40
2008,10,21,12,13,11.40
2008,10,21,12,14,11.40
2008,10,21,12,15,11.40
2008,10,21,12,16,11.40
2008,10,21,12,17,11.40
2008,10,21,12,18,11.40
2008,10,21,12,19,11.40
2008,10,21,12,20,11.50
2008,10,21,12,21,11.50
2008,10,21,12,22,11.60
2008,10,21,12,23,11.70
2008,10,21,12,24,11.80
2008,10,21,12,25,11.80
2008,10,21,12,26,12.00
2008,10,21,12,27,12.00
2008,10,21,12,28,12.10
2008,10,21,12,29,12.10
2008,10,21,12,30,12.10
2008,10,21,12,31,12.00
2008,10,21,12,32,11.90
2008,10,21,12,33,11.90
2008,10,21,12,34,11.80
2008,10,21,12,35,11.90
2008,10,21,12,36,11.80
2008,10,21,12,37,11.80
2008,10,21,12,38,11.80
2008,10,21,12,39,11.70
2008,10,21,12,40,11.70
2008,10,21,12,41,11.80
2008,10,21,12,42,11.80
2008,10,21,12,43,11.90
2008,10,21,12,44,11.90
2008,10,21,12,45,11.90
2008,10,21,12,46,12.00
2008,10,21,12,47,12.00
2008,10,21,12,48,12.00
2008,10,21,12,49,12.10
2008,10,21,12,50,12.20
2008,10,21,12,51,12.30
2008,10,21,12,52,12.30
2008,10,21,12,53,12.40
2008,10,21,12,54,12.40
2008,10,21,12,55,12.50
2008,10,21,12,56,12.50
2008,10,21,12,57,12.60
2008,10,21,12,58,12.60
2008,10,21,12,59,12.70
2008,10,21,13,00,12.70
2008,10,21,13,01,12.70
2008,10,21,13,02,12.70
2008,10,21,13,03,12.70
2008,10,21,13,04,12.60
2008,10,21,13,05,12.50
2008,10,21,13,06,12.40
2008,10,21,13,07,12.40
2008,10,21,13,08,12.30
2008,10,21,13,09,12.30
2008,10,21,13,10,12.20
2008,10,21,13,11,12.20
2008,10,21,13,12,12.20
2008,10,21,13,13,12.20
2008,10,21,13,14,12.10
2008,10,21,13,15,12.10
2008,10,21,13,16,12.10
2008,10,21,13,17,12.10
2008,10,21,13,18,12.10
2008,10,21,13,19,12.00
2008,10,21,13,20,12.00
2008,10,21,13,21,11.90
2008,10,21,13,22,11.90
2008,10,21,13,23,11.80
2008,10,21,13,24,11.80
2008,10,21,13,25,11.80
2008,10,21,13,26,11.80
2008,10,21,13,27,11.80
2008,10,21,13,28,11.80
2008,10,21,13,29,11.90
2008,10,21,13,30,12.00
2008,10,21,13,31,12.10
2008,10,21,13,32,12.20
2008,10,21,13,33,12.30
2008,10,21,13,34,12.30
2008,10,21,13,35,12.40
2008,10,21,13,36,12.40
2008,10,21,13,37,12.40
2008,10,21,13,38,12.30
2008,10,21,13,39,12.20
2008,10,21,13,40,12.10
2008,10,21,13,41,12.10
2008,10,21,13,42,12.10
2008,10,21,13,43,12.20
2008,10,21,13,44,12.20
2008,10,21,13,45,12.20
2008,10,21,13,46,12.30
2008,10,21,13,47,12.30
2008,10,21,13,48,12.30
2008,10,21,13,49,12.20
2008,10,21,13,50,12.20
2008,10,21,13,51,12.10
2008,10,21,13,52,12.10
2008,10,21,13,53,12.10
2008,10,21,13,54,12.10
2008,10,21,13,55,12.00
2008,10,21,13,56,12.00
2008,10,21,13,57,12.00
2008,10,21,13,58,12.00
2008,10,21,13,59,12.00
2008,10,21,14,00,12.10
2008,10,21,14,01,12.10
2008,10,21,14,02,12.10
2008,10,21,14,03,12.20
2008,10,21,14,04,12.20
2008,10,21,14,05,12.30
2008,10,21,14,06,12.30
2008,10,21,14,07,12.20
2008,10,21,14,08,12.20
2008,10,21,14,09,12.20
2008,10,21,14,10,12.20
2008,10,21,14,11,12.10
2008,10,21,14,12,12.00
2008,10,21,14,13,12.00
2008,10,21,14,14,12.00
2008,10,21,14,15,12.10
2008,10,21,14,16,12.20
2008,10,21,14,17,12.20
2008,10,21,14,18,12.10
2008,10,21,14,19,12.10
2008,10,21,14,20,12.20
2008,10,21,14,21,12.10
2008,10,21,14,22,12.10
2008,10,21,14,23,12.10
2008,10,21,14,24,12.10
2008,10,21,14,25,12.10
2008,10,21,14,26,12.10
2008,10,21,14,27,12.10
2008,10,21,14,28,12.00
2008,10,21,14,29,12.00
2008,10,21,14,30,12.00
2008,10,21,14,31,12.10
2008,10,21,14,32,12.10
2008,10,21,14,33,12.10
2008,10,21,14,34,12.00
2008,10,21,14,35,12.00
2008,10,21,14,36,12.00
2008,10,21,14,37,11.90
2008,10,21,14,38,11.90
2008,10,21,14,39,11.90
2008,10,21,14,40,11.90
2008,10,21,14,41,11.90
2008,10,21,14,42,11.90
2008,10,21,14,43,11.90
2008,10,21,14,44,11.90
2008,10,21,14,45,11.90
2008,10,21,14,46,11.90
2008,10,21,14,47,12.00
2008,10,21,14,48,12.10
2008,10,21,14,49,12.10
2008,10,21,14,50,12.10
2008,10,21,14,51,12.10
2008,10,21,14,52,12.10
2008,10,21,14,53,12.10
2008,10,21,14,54,12.10
2008,10,21,14,55,12.10
2008,10,21,14,56,12.10
2008,10,21,14,57,12.10
2008,10,21,14,58,12.10
2008,10,21,14,59,12.10
2008,10,21,15,00,12.10
2008,10,21,15,01,12.10
2008,10,21,15,02,12.00
2008,10,21,15,03,11.90
2008,10,21,15,04,11.90
2008,10,21,15,05,11.80
2008,10,21,15,06,11.80
2008,10,21,15,07,11.80
2008,10,21,15,08,11.80
2008,10,21,15,09,11.80
2008,10,21,15,10,11.80
2008,10,21,15,11,11.90
2008,10,21,15,12,11.90
2008,10,21,15,13,11.90
2008,10,21,15,14,11.90
2008,10,21,15,15,11.90
2008,10,21,15,16,11.80
2008,10,21,15,17,11.80
2008,10,21,15,18,11.80
2008,10,21,15,19,11.80
2008,10,21,15,20,11.80
2008,10,21,15,21,11.80
2008,10,21,15,22,11.80
2008,10,21,15,23,11.80
2008,10,21,15,24,11.80
2008,10,21,15,25,11.80
2008,10,21,15,26,11.80
2008,10,21,15,27,11.80
2008,10,21,15,28,11.80
2008,10,21,15,29,11.80
2008,10,21,15,30,11.80
2008,10,21,15,31,11.80
2008,10,21,15,32,11.80
2008,10,21,15,33,11.80
2008,10,21,15,34,11.80
2008,10,21,15,35,11.80
2008,10,21,15,36,11.80
2008,10,21,15,37,11.70
2008,10,21,15,38,11.70
2008,10,21,15,39,11.70
2008,10,21,15,40,11.70
2008,10,21,15,41,11.60
2008,10,21,15,42,11.60
2008,10,21,15,43,11.60
2008,10,21,15,44,11.60
2008,10,21,15,45,11.50
2008,10,21,15,46,11.50
2008,10,21,15,47,11.50
2008,10,21,15,48,11.50
2008,10,21,15,49,11.50
2008,10,21,15,50,11.50
2008,10,21,15,51,11.50
2008,10,21,15,52,11.40
2008,10,21,15,53,11.40
2008,10,21,15,54,11.50
2008,10,21,15,55,11.50
2008,10,21,15,56,11.50
2008,10,21,15,57,11.50
2008,10,21,15,58,11.40
2008,10,21,15,59,11.40
2008,10,21,16,00,11.40
2008,10,21,16,01,11.40
2008,10,21,16,02,11.40
2008,10,21,16,03,11.40
2008,10,21,16,04,11.40
2008,10,21,16,05,11.40
2008,10,21,16,06,11.40
2008,10,21,16,07,11.40
2008,10,21,16,08,11.40
2008,10,21,16,09,11.40
2008,10,21,16,10,11.40
2008,10,21,16,11,11.40
2008,10,21,16,12,11.40
2008,10,21,16,13,11.40
2008,10,21,16,14,11.40
2008,10,21,16,15,11.40
2008,10,21,16,16,11.40
2008,10,21,16,17,11.40
2008,10,21,16,18,11.30
2008,10,21,16,19,11.30
2008,10,21,16,20,11.30
2008,10,21,16,21,11.30
2008,10,21,16,22,11.30
2008,10,21,16,23,11.30
2008,10,21,16,24,11.30
2008,10,21,16,25,11.30
2008,10,21,16,26,11.30
2008,10,21,16,27,11.30
2008,10,21,16,28,11.30
2008,10,21,16,29,11.30
2008,10,21,16,30,11.40
2008,10,21,16,31,11.40
2008,10,21,16,32,11.40
2008,10,21,16,33,11.50
2008,10,21,16,34,11.50
2008,10,21,16,35,11.60
2008,10,21,16,36,11.60
2008,10,21,16,37,11.60
2008,10,21,16,38,11.60
2008,10,21,16,39,11.60
2008,10,21,16,40,11.60
2008,10,21,16,41,11.60
2008,10,21,16,42,11.60
2008,10,21,16,43,11.60
2008,10,21,16,44,11.60
2008,10,21,16,45,11.50
2008,10,21,16,46,11.50
2008,10,21,16,47,11.50
2008,10,21,16,48,11.40
2008,10,21,16,49,11.40
2008,10,21,16,50,11.40
2008,10,21,16,51,11.40
2008,10,21,16,52,11.40
2008,10,21,16,53,11.40
2008,10,21,16,54,11.40
2008,10,21,16,55,11.40
2008,10,21,16,56,11.40
2008,10,21,16,57,11.40
2008,10,21,16,58,11.30
2008,10,21,16,59,11.30
2008,10,21,17,00,11.30
2008,10,21,17,01,11.30
2008,10,21,17,02,11.30
2008,10,21,17,03,11.20
2008,10,21,17,04,11.20
2008,10,21,17,05,11.20
2008,10,21,17,06,11.20
2008,10,21,17,07,11.20
2008,10,21,17,08,11.20
2008,10,21,17,09,11.10
2008,10,21,17,10,11.10
2008,10,21,17,11,11.10
2008,10,21,17,12,11.10
2008,10,21,17,13,11.10
2008,10,21,17,14,11.00
2008,10,21,17,15,11.00
2008,10,21,17,16,11.00
2008,10,21,17,17,10.90
2008,10,21,17,18,10.90
2008,10,21,17,19,10.90
2008,10,21,17,20,10.90
2008,10,21,17,21,10.90
2008,10,21,17,22,10.90
2008,10,21,17,23,10.90
2008,10,21,17,24,10.80
2008,10,21,17,25,10.80
2008,10,21,17,26,10.80
2008,10,21,17,27,10.80
2008,10,21,17,28,10.80
2008,10,21,17,29,10.80
2008,10,21,17,30,10.80
2008,10,21,17,31,10.80
2008,10,21,17,32,10.80
2008,10,21,17,33,10.80
2008,10,21,17,34,10.80
2008,10,21,17,35,10.80
2008,10,21,17,36,10.80
2008,10,21,17,37,10.80
2008,10,21,17,38,10.80
2008,10,21,17,39,10.80
2008,10,21,17,40,10.80
2008,10,21,17,41,10.80
2008,10,21,17,42,10.80
2008,10,21,17,43,10.80
2008,10,21,17,44,10.80
2008,10,21,17,45,10.80
2008,10,21,17,46,10.80
2008,10,21,17,47,10.80